Regional Weather Roundup
Issued by NWS

Home | Current Version | Previous Version | Text Only | Print | Product List | Glossary On
Versions: 1 2 3 4 5 6 7 8 9 10 11 12 13 14 15 16 17 18 19 20 21 22 23 24 25 26 27 28 29 30 31 32 33 34 35 36 37 38 39 40 41 42 43 44 45 46 47 48 49 50
000
ASUS43 KFSD 250910
RWRSD

WEATHER ROUNDUP FOR SOUTH DAKOTA
NATIONAL WEATHER SERVICE SIOUX FALLS SD
300 AM CST SAT FEB 25 2017

NOTE: "FAIR" INDICATES FEW OR NO CLOUDS BELOW 12,000 FEET WITH NO
SIGNIFICANT WEATHER AND/OR OBSTRUCTIONS TO VISIBILITY.


SDZ001>005-009-010-012>017-251000-
NORTHWEST AND NORTH CENTRAL SOUTH DAKOTA

CITY           SKY/WX    TMP DP  RH WIND       PRES   REMARKS
BUFFALO          N/A     22  17  81 W5        29.88F WCI  16
FAITH            N/A     20  16  84 S13       29.98F WCI   7
MOBRIDGE       CLOUDY    23  15  71 S5        30.01F WCI  17
$$

SDZ012>016-024>037-041>051-057-063-072>074-251000-
SOUTHWEST AND SOUTH CENTRAL SOUTH DAKOTA

CITY           SKY/WX    TMP DP  RH WIND       PRES   REMARKS
RAPID CTY ARPT CLOUDY    10   7  87 NW3       29.97F
PIERRE         CLOUDY    21  15  78 SW3       30.06F
CUSTER         CLOUDY    12   7  80 NW3       29.86F
ELLSWORTH AFB  CLOUDY    17  13  85 W7        29.95F WCI   7
PHILIP         CLOUDY    22  17  81 S3        30.03F
PINE RIDGE     CLOUDY     4   1  88 NW3       30.00F
SPEARFISH      FAIR      19  12  73 CALM      29.94F
WINNER         CLOUDY    15   9  76 SW6       30.07F WCI   6
$$

SDZ004>011-016>023-039-040-251000-
NORTHEAST SOUTH DAKOTA

CITY           SKY/WX    TMP DP  RH WIND       PRES   REMARKS
ABERDEEN       CLEAR     12   8  84 SW6       30.06F WCI   3
WATERTOWN      CLEAR     14  11  87 NW7       30.02F WCI   4
BROOKINGS      CLEAR     15  12  88 NW8       30.03S WCI   4
SISSETON         N/A     17  13  84 NW9       30.04F WCI   6
$$

SDZ017-020-022-023-036>040-048>070-251000-
SOUTHEAST SOUTH DAKOTA

CITY           SKY/WX    TMP DP  RH WIND       PRES   REMARKS
SIOUX FALLS    CLEAR     16  13  88 NW12      30.05F WCI   3
HURON          CLEAR     13  12  96 W6        30.09F WCI   4
CHAMBERLAIN    CLOUDY    21  19  90 CALM      30.09F
MITCHELL       CLEAR     18  14  84 W7        30.11F WCI   9
YANKTON        CLOUDY    14   7  73 NW13      30.09F WCI   0
$$

ABBREVIATIONS USED IN REMARKS
   TC - TEMPERATURE IN CELSIUS
  WCI - WIND CHILL INDEX
   HX - HEAT INDEX
  VSB - VISIBILITY




USA.gov is the U.S. government's official web portal to all federal, state and local government web resources and services.